Weather History for Gainesville, GA

Change the Weather History Date:

Friday, January 3, 2014

  Actual Average Record
Temperature  
Mean Temperature 27 °F 41 °F  
Max Temperature 35 °F 50 °F 71 °F (1952)
Min Temperature 19 °F 33 °F 8 °F (1979)
Degree Days  
Heating Degree Days 38 24  
Month to date heating degree days 91 72  
Since 1 July heating degree days 1286 1268  
Moisture  
Dew Point 8 °F    
Average Humidity 47    
Maximum Humidity 65    
Minimum Humidity 29    
Precipitation  
Precipitation T in 0.11 in 2.48 in (1982)
Month to date precipitation 0.26 0.35  
Year to date precipitation 0.26 0.35  
Snow  
Snow T in - - ()
Month to date snowfall T  
Since 1 July snowfall T  
Snow Depth 0.00 in    
Sea Level Pressure  
Sea Level Pressure 30.30 in    
Wind  
Wind Speed 6 mph (NW)    
Max Wind Speed 28 mph    
Max Gust Speed 39 mph    
Visibility 10 miles    
Events Snow    
T = Trace of Precipitation, MM = Missing Value Source: NWS Daily Summary

Daily Weather History Graph

Daily Weather History Graph

Search for Another Location

Airport:

Trip Planner

Search our weather history database for the weather conditions in past years. The results will help you decide how hot, cold, wet, or windy it might be!

Date:

Astronomy

Jan. 03, 2014 Rise Set
Actual Time 7:41 AM EST 5:38 PM EST
Civil Twilight 7:14 AM EST 6:05 PM EST
Nautical Twilight 6:42 AM EST 6:37 PM EST
Astronomical Twilight 6:12 AM EST 7:07 PM EST
Moon 9:14 AM EST (1/3) 8:37 PM EST (1/3)
Length of Visible Light 10h 51m
Length of Day
9h 56m
Waxing Crescent, 8% of the Moon is Illuminated
Jan 3
Waxing Crescent
Jan 7
First Quarter
Jan 15
Full
Jan 24
Last Quarter
Jan 30
New

Hourly Weather History & Observations

Time (EST) Temp. Windchill Dew Point Humidity Pressure Visibility Wind Dir Wind Speed Gust Speed Precip Events Conditions
12:53 AM 23.0 °F 11.1 °F 12.9 °F 65% 30.09 in 10.0 mi NW 12.7 mph 26.5 mph N/A   Mostly Cloudy
1:53 AM 21.9 °F 8.7 °F 10.0 °F 60% 30.13 in 9.0 mi NW 15.0 mph 23.0 mph 0.00 in Snow Light Snow
2:05 AM 21.2 °F 6.0 °F 10.4 °F 63% 30.11 in 9.0 mi NW 19.6 mph 34.5 mph 0.00 in Snow Light Snow
2:30 AM 21.2 °F 6.0 °F 8.6 °F 58% 30.13 in 10.0 mi NNW 19.6 mph 27.6 mph 0.00 in   Overcast
2:53 AM 21.9 °F 9.8 °F 8.1 °F 55% 30.16 in 10.0 mi NW 12.7 mph 28.8 mph 0.00 in   Mostly Cloudy
3:53 AM 21.0 °F 9.3 °F 8.1 °F 57% 30.19 in 10.0 mi NW 11.5 mph 21.9 mph N/A   Clear
4:53 AM 19.9 °F 6.7 °F 7.0 °F 57% 30.20 in 10.0 mi WNW 13.8 mph 25.3 mph N/A   Clear
5:53 AM 19.9 °F 6.2 °F 7.0 °F 57% 30.22 in 10.0 mi NW 15.0 mph - N/A   Clear
6:53 AM 19.0 °F 7.5 °F 8.1 °F 62% 30.25 in 10.0 mi WNW 10.4 mph - N/A   Clear
7:53 AM 19.0 °F 6.8 °F 7.0 °F 59% 30.26 in 10.0 mi WNW 11.5 mph - N/A   Clear
8:53 AM 21.0 °F 10.6 °F 7.0 °F 55% 30.32 in 10.0 mi WNW 9.2 mph - N/A   Clear
9:53 AM 21.9 °F 10.4 °F 6.1 °F 51% 30.35 in 10.0 mi NW 11.5 mph - N/A   Clear
10:53 AM 24.1 °F 19.7 °F 5.0 °F 44% 30.39 in 10.0 mi Variable 3.5 mph - N/A   Clear
11:53 AM 28.0 °F 22.8 °F 7.0 °F 41% 30.39 in 10.0 mi North 4.6 mph - N/A   Clear
12:53 PM 30.0 °F - 6.1 °F 36% 30.37 in 10.0 mi Calm Calm - N/A   Clear
1:53 PM 32.0 °F - 5.0 °F 32% 30.36 in 10.0 mi Calm Calm - N/A   Clear
2:53 PM 33.1 °F - 5.0 °F 31% 30.35 in 10.0 mi Calm Calm - N/A   Clear
3:53 PM 33.1 °F 30.0 °F 6.1 °F 32% 30.35 in 10.0 mi SSE 3.5 mph - N/A   Clear
4:53 PM 33.1 °F 30.0 °F 6.1 °F 32% 30.35 in 10.0 mi WSW 3.5 mph - N/A   Clear
5:53 PM 30.9 °F - 7.0 °F 37% 30.37 in 10.0 mi Calm Calm - N/A   Clear
6:53 PM 30.0 °F - 8.1 °F 40% 30.39 in 10.0 mi Calm Calm - N/A   Clear
7:53 PM 28.9 °F - 8.1 °F 41% 30.39 in 10.0 mi Calm Calm - N/A   Clear
8:53 PM 27.0 °F - 10.9 °F 51% 30.39 in 10.0 mi Calm Calm - N/A   Clear
9:53 PM 28.0 °F - 12.9 °F 53% 30.40 in 10.0 mi Calm Calm - N/A   Clear
10:53 PM 27.0 °F 23.0 °F 9.0 °F 47% 30.41 in 10.0 mi East 3.5 mph - N/A   Clear
11:53 PM 26.1 °F 20.5 °F 10.0 °F 51% 30.41 in 10.0 mi East 4.6 mph - N/A   Clear